Change the Weather History Date:

Thursday, March 13, 2014

  Actual Average Record
Temperature  
Mean Temperature 76 °F -  
Max Temperature 80 °F - - ()
Min Temperature 73 °F - - ()
Cooling Degree Days 12    
Growing Degree Days 26 (Base 50)    
Moisture  
Dew Point 70 °F    
Average Humidity 81    
Maximum Humidity 94    
Minimum Humidity 70    
Precipitation  
Precipitation 0.01 in - - ()
Sea Level Pressure  
Sea Level Pressure 29.92 in    
Wind  
Wind Speed 19 mph ()    
Max Wind Speed 30 mph    
Max Gust Speed -    
Visibility 6.2 miles    
Events      
T = Trace of Precipitation, MM = Missing Value Source: Averaged Metar Reports

Daily Weather History Graph

Daily Weather History Graph

Search for Another Location

Airport or City:

Trip Planner

Search our weather history database for the weather conditions in past years. The results will help you decide how hot, cold, wet, or windy it might be!

Date:

Astronomy

Mar. 13, 2014 Rise Set
Actual Time 6:05 AM AEST 6:21 PM AEST
Civil Twilight 5:43 AM AEST 6:43 PM AEST
Nautical Twilight 5:17 AM AEST 7:09 PM AEST
Astronomical Twilight 4:51 AM AEST 7:35 PM AEST
Moon 3:58 PM AEST (3/13) 2:55 AM AEST (3/13)
Length of Visible Light 13h 00m
Length of Day
12h 15m
Waxing Gibbous, 88% of the Moon is Illuminated
Mar 13
Waxing Gibbous
Mar 17
Full
Mar 24
Last Quarter
Mar 31
New
Apr 7
First Quarter

Hourly Weather History & Observations

Time (AEST) Temp. Dew Point Humidity Pressure Visibility Wind Dir Wind Speed Gust Speed Precip Events Conditions
12:00 AM 76 °F 69 °F 72% 29.94 in - SE 19.6 mph - -  
12:00 AM 75.2 °F 68.0 °F 78% 29.95 in 6.2 mi SE 19.6 mph - N/A   Unknown
12:30 AM 75.2 °F 69.8 °F 83% 29.92 in - SE 17.3 mph - N/A   Unknown
1:00 AM 75.2 °F 68.0 °F 78% 29.92 in 6.2 mi SE 19.6 mph - N/A   Unknown
1:30 AM 75.2 °F 68.0 °F 78% 29.92 in 6.2 mi SE 18.4 mph - N/A   Unknown
2:00 AM 75.2 °F 68.0 °F 78% 29.89 in 6.2 mi SE 18.4 mph - N/A   Unknown
2:30 AM 75.2 °F 69.8 °F 83% 29.89 in 6.2 mi SE 18.4 mph - N/A   Unknown
3:00 AM 76 °F 69 °F 73% 29.89 in - SE 19.6 mph - -  
3:00 AM 75.2 °F 69.8 °F 83% 29.89 in 6.2 mi SE 19.6 mph - N/A   Unknown
3:30 AM 75.2 °F 69.8 °F 83% 29.89 in 6.2 mi SE 17.3 mph - N/A   Unknown
4:00 AM 75.2 °F 69.8 °F 83% 29.89 in 6.2 mi SSE 17.3 mph - N/A   Unknown
4:30 AM 75.2 °F 69.8 °F 83% 29.89 in 6.2 mi South 15.0 mph - N/A   Unknown
5:00 AM 75.2 °F 69.8 °F 83% 29.89 in 6.2 mi SSE 17.3 mph - N/A   Unknown
5:30 AM 75.2 °F 69.8 °F 83% 29.92 in 6.2 mi SSE 16.1 mph - N/A   Unknown
6:00 AM 74 °F 70 °F 82% 29.91 in - SSE 18.4 mph - -  
6:00 AM 75.2 °F 69.8 °F 83% 29.92 in 6.2 mi SSE 18.4 mph - N/A   Unknown
6:30 AM 73.4 °F 71.6 °F 94% 29.92 in 6.2 mi SSE 18.4 mph - N/A   Unknown
7:00 AM 73.4 °F 69.8 °F 88% 29.92 in 6.2 mi SSE 21.9 mph - N/A   Unknown
7:30 AM 73.4 °F 71.6 °F 94% 29.95 in 6.2 mi SSE 21.9 mph - N/A   Unknown
8:00 AM 75.2 °F 71.6 °F 89% 29.95 in 6.2 mi SSE 18.4 mph - N/A   Unknown
8:30 AM 75.2 °F 71.6 °F 89% 29.95 in 6.2 mi SSE 23.0 mph - N/A   Unknown
9:00 AM 76 °F 72 °F 84% 29.95 in - SSE 24.2 mph - -  
9:00 AM 77.0 °F 71.6 °F 83% 29.95 in 6.2 mi SSE 24.2 mph - N/A   Unknown
9:30 AM 77.0 °F 71.6 °F 83% 29.95 in 6.2 mi SSE 24.2 mph - N/A   Unknown
10:00 AM 77.0 °F 71.6 °F 83% 29.95 in 6.2 mi SSE 21.9 mph - N/A   Unknown
10:30 AM 78.8 °F 73.4 °F 83% 29.95 in 6.2 mi SSE 20.7 mph - N/A   Unknown
11:00 AM 77.0 °F 71.6 °F 83% 29.95 in 6.2 mi SSE 23.0 mph - N/A   Unknown
11:30 AM 77.0 °F 71.6 °F 83% 29.95 in 6.2 mi SSE 21.9 mph - N/A   Unknown
12:00 PM 80 °F 72 °F 71% 29.94 in - SSE 20.7 mph - -  
12:00 PM 78.8 °F 71.6 °F 78% 29.95 in 6.2 mi SSE 20.7 mph - N/A   Unknown
12:30 PM 78.8 °F 71.6 °F 78% 29.92 in 6.2 mi SSE 23.0 mph - N/A   Unknown
1:00 PM 78.8 °F 71.6 °F 78% 29.92 in 6.2 mi SSE 25.3 mph - N/A   Unknown
1:30 PM 78.8 °F 71.6 °F 78% 29.89 in 6.2 mi SSE 24.2 mph - N/A   Unknown
2:00 PM 78.8 °F 71.6 °F 78% 29.89 in 6.2 mi SSE 24.2 mph - N/A   Unknown
2:30 PM 78.8 °F 69.8 °F 74% 29.89 in 6.2 mi SSE 25.3 mph - N/A   Unknown
3:00 PM 78 °F 70 °F 70% 29.88 in - SSE 25.3 mph - -  
3:00 PM 78.8 °F 69.8 °F 74% 29.89 in 6.2 mi SSE 25.3 mph - N/A   Unknown
3:30 PM 77.0 °F 69.8 °F 78% 29.89 in 6.2 mi SSE 24.2 mph - N/A   Unknown
4:00 PM 77.0 °F 69.8 °F 78% 29.89 in 6.2 mi SSE 24.2 mph - N/A   Unknown
4:30 PM 77.0 °F 69.8 °F 78% 29.89 in 6.2 mi SSE 23.0 mph - N/A   Unknown
4:59 PM 75.2 °F 69.8 °F 83% 29.89 in 6.2 mi ESE 26.5 mph - N/A   Unknown
5:00 PM 75.2 °F 69.8 °F 83% 29.89 in 6.2 mi ESE 26.5 mph - N/A   Unknown
5:30 PM 75.2 °F 71.6 °F 89% 29.89 in 6.2 mi ESE 21.9 mph - N/A   Unknown
6:00 PM 74 °F 70 °F 83% 29.91 in - ESE 29.9 mph - -  
6:00 PM 75.2 °F 69.8 °F 83% 29.92 in 6.2 mi ESE 29.9 mph - N/A   Unknown
6:30 PM 75.2 °F 71.6 °F 89% 29.92 in 6.2 mi ESE 24.2 mph - N/A   Unknown
7:00 PM 73.4 °F 68.0 °F 83% 29.92 in 6.2 mi ESE 25.3 mph - N/A   Unknown
7:30 PM 75.2 °F 66.2 °F 73% 29.95 in 6.2 mi ESE 19.6 mph - N/A   Unknown
8:00 PM 75.2 °F 68.0 °F 78% 29.95 in 6.2 mi SE 16.1 mph - N/A   Unknown
8:30 PM 75.2 °F 69.8 °F 83% 29.95 in 6.2 mi SE 15.0 mph - N/A   Unknown
9:00 PM 76 °F 70 °F 77% 29.97 in - SE 15.0 mph - -  
9:00 PM 77.0 °F 69.8 °F 78% 29.98 in 6.2 mi SE 15.0 mph - N/A   Unknown
9:30 PM 77.0 °F 69.8 °F 78% 29.98 in 6.2 mi ESE 19.6 mph - N/A   Unknown
10:00 PM 77.0 °F 68.0 °F 74% 29.98 in 6.2 mi ESE 18.4 mph - N/A   Unknown
10:30 PM 77.0 °F 69.8 °F 78% 29.98 in 6.2 mi ESE 19.6 mph - N/A   Unknown
11:00 PM 77.0 °F 68.0 °F 74% 29.98 in 6.2 mi ESE 20.7 mph - N/A   Unknown
11:30 PM 77.0 °F 69.8 °F 78% 29.95 in 6.2 mi ESE 20.7 mph - N/A   Unknown